Wind_Speed
33 31 28 27 22 18 14 13 11 9 8 9 11 11 15 15 12 11 11 10 8 9 9 7 7 7 7 11 15 16 14 13 10 8 10 7 5 3 3 4 5 6 9 9 9 9 9 8 9
35 33 31 29 24 19 17 15 13 11 10 8 9 11 13 14 10 8 9 8 7 8 9 10 12 12 9 14 18 15 13 10 10 10 10 7 3 3 3 3 4 8 9 8 8 8 7 7 8
37 36 33 31 25 20 20 17 16 14 12 11 10 10 12 14 9 5 7 8 5 7 8 10 13 16 15 15 18 14 14 10 9 11 8 6 3 3 3 3 6 8 6 6 5 6 6 6 6
39 38 36 32 28 23 22 19 17 15 13 12 10 10 11 11 8 4 5 7 5 7 8 12 14 16 17 16 15 13 12 9 12 10 8 5 5 3 3 5 7 5 5 5 4 5 5 5 5
50 45 42 38 34 27 24 21 16 16 14 13 9 10 10 11 9 4 3 5 3 8 12 15 17 17 16 15 14 12 11 10 10 8 6 4 3 4 3 5 3 3 3 3 2 3 3 4 3
43 49 41 39 35 30 28 24 18 18 15 14 10 10 10 11 8 4 1 2 3 9 14 16 17 13 13 14 13 11 13 10 9 7 4 3 3 3 2 2 1 1 1 1 2 1 1 0 1
36 42 43 39 35 29 29 26 21 19 17 14 10 10 10 11 6 6 2 2 5 8 15 19 17 14 12 12 14 14 13 11 9 7 4 3 3 2 2 2 2 1 1 2 1 2 3 3 4
35 42 42 39 32 29 31 25 23 21 23 16 11 11 9 10 7 5 5 5 7 10 13 17 16 14 10 9 12 14 12 12 9 7 5 3 3 2 3 3 2 2 3 4 5 6 6 6 8
39 42 43 38 31 31 32 27 27 23 23 19 15 12 10 11 10 6 6 8 9 14 16 16 15 13 13 11 8 9 10 10 9 6 5 4 5 5 5 5 3 4 4 5 7 9 9 9 10
38 39 40 39 34 34 35 31 31 25 24 21 17 14 12 12 12 9 7 10 11 16 17 16 17 16 13 11 10 8 8 8 7 6 5 5 6 7 7 8 6 6 6 7 9 10 11 12 12
40 37 40 41 42 39 39 35 32 29 27 24 18 16 14 12 14 13 9 12 13 13 19 18 18 16 14 12 11 13 11 8 4 6 6 8 11 12 11 10 10 9 10 11 11 10 11 12 14
44 38 41 41 42 44 40 37 34 30 31 24 21 18 16 15 15 14 12 12 17 18 21 21 21 18 15 14 14 14 13 12 11 11 11 10 11 12 12 12 12 12 12 12 12 11 11 13 14
47 40 38 35 35 40 40 37 36 31 31 26 23 22 19 18 16 15 15 14 17 18 19 23 23 21 18 16 15 14 14 14 12 12 12 12 13 14 14 14 14 15 15 15 14 13 12 13 16
45 45 33 30 28 31 33 34 38 34 31 29 26 24 21 20 18 18 16 15 16 19 20 21 23 23 21 20 18 17 16 15 14 15 14 14 15 15 16 17 16 17 17 17 17 16 16 16 19
45 44 43 28 29 29 30 36 35 32 35 31 29 28 23 23 21 19 18 17 17 18 21 23 23 22 22 20 18 18 17 16 16 16 15 15 15 17 19 19 19 19 19 20 19 19 20 21 22
51 46 49 35 30 29 34 31 29 35 36 32 32 30 26 25 25 19 21 19 18 18 21 24 23 24 23 21 20 20 18 16 17 17 17 17 18 18 20 21 20 21 22 23 22 23 24 25 26
55 52 49 40 36 34 38 30 29 37 36 32 33 31 30 28 25 24 25 22 21 20 19 20 24 26 25 22 20 18 18 18 19 19 19 20 20 20 20 22 22 23 25 25 26 28 29 30 31
56 54 50 42 36 38 38 28 29 35 38 34 35 34 32 28 27 29 27 25 23 22 20 20 22 22 23 22 22 21 20 21 22 22 21 19 20 20 22 23 23 26 27 27 29 32 33 35 36
54 53 51 41 38 42 41 34 31 39 35 39 36 35 31 28 33 33 29 27 25 24 23 23 23 24 23 23 23 24 25 24 21 21 19 18 20 22 23 24 24 25 27 29 31 34 36 39 40
55 54 49 43 42 44 43 38 33 37 37 35 32 33 32 32 34 33 31 29 26 28 26 23 25 24 25 25 26 23 22 20 18 19 19 21 24 23 23 23 25 26 28 31 33 36 38 41 42
56 56 50 45 43 47 45 44 38 37 38 34 33 35 33 33 33 32 32 31 31 27 26 29 30 28 28 27 25 23 22 21 21 22 24 25 23 22 23 25 26 27 29 31 35 37 39 41 43
60 54 48 44 46 49 48 52 44 40 37 35 28 30 31 33 34 35 32 32 33 32 34 33 31 31 29 28 25 25 24 23 25 25 25 26 26 26 27 27 30 32 33 35 38 41 42 45 46
60 56 51 47 48 51 53 58 46 42 40 30 24 28 31 36 39 37 34 32 35 37 39 40 36 33 32 31 28 28 27 28 29 26 28 29 30 30 31 32 34 36 38 39 41 44 46 48 50
58 57 57 50 50 61 52 56 56 43 37 29 27 28 31 34 34 32 31 31 32 35 38 41 42 38 32 30 29 29 32 32 31 32 32 31 33 33 34 36 37 38 39 41 43 45 46 49 51
54 55 57 58 58 61 55 58 58 42 36 35 32 31 30 30 27 26 25 25 26 32 37 41 42 37 35 34 32 33 35 34 32 34 35 35 35 35 36 36 37 38 41 42 44 46 48 50 52
45 47 58 65 61 60 64 63 63 49 34 34 36 32 31 29 29 28 27 25 23 26 27 29 35 36 34 32 32 30 29 29 28 28 30 31 35 36 37 38 40 41 44 46 46 47 48 50 51
50 52 44 58 58 62 66 64 63 55 40 36 33 35 34 32 32 30 27 24 21 20 19 21 27 28 26 26 23 19 17 18 21 26 28 31 34 37 38 40 44 46 47 48 48 47 48 51 53
53 45 51 56 59 61 61 66 65 60 41 37 38 37 34 36 37 32 28 26 26 24 24 24 25 25 25 26 24 22 23 26 28 30 32 36 37 40 43 45 48 48 49 49 51 51 53 55 57
58 56 51 51 59 59 59 64 58 59 49 42 36 35 36 36 38 36 33 30 30 29 27 26 26 28 31 31 30 28 28 32 34 35 38 41 44 46 48 49 48 49 50 51 52 53 54 52 51
66 63 59 61 58 57 60 65 59 58 50 41 40 38 36 35 35 34 34 33 31 31 30 31 31 33 35 35 34 34 35 37 39 41 43 45 46 49 50 50 51 50 50 50 50 50 48 49 50
Wind_Direction
223 225 225 230 230 235 245 256 271 290 313 333 332 340 347 354 5 20 37 62 94 109 134 133 137 111 83 125 143 138 133 126 119 113 109 105 85 90 94 116 110 110 114 114 118 116 107 99 89
225 226 228 232 231 233 243 254 267 280 299 318 327 334 343 351 7 11 33 57 115 111 127 132 127 124 116 134 138 139 136 133 130 126 117 106 86 81 98 112 112 120 127 135 134 119 104 90 84
222 229 229 232 232 237 245 252 266 280 288 303 327 329 338 343 1 5 32 55 115 128 138 151 135 128 130 139 139 140 141 142 135 127 126 113 103 109 116 130 141 144 144 138 127 107 95 90 88
222 224 228 233 232 237 248 255 263 274 286 296 315 324 327 339 348 4 27 48 104 132 154 158 145 133 133 133 141 141 138 147 141 130 131 123 139 134 163 151 146 149 145 139 129 110 97 97 97
227 224 225 228 235 241 251 254 260 267 273 280 296 306 317 326 344 352 28 44 103 120 137 147 151 134 134 141 139 142 149 154 138 138 141 142 126 152 168 152 146 152 163 151 106 73 66 55 59
241 238 226 228 232 235 243 247 251 255 261 266 275 293 301 312 333 310 60 42 142 130 143 148 157 156 140 145 149 154 155 164 157 158 168 158 147 155 172 171 166 174 220 67 75 81 111 217 270
239 244 232 224 227 231 240 244 247 252 255 254 257 272 284 297 312 300 188 239 164 146 149 156 160 159 157 154 161 162 167 175 178 178 187 190 174 166 196 213 239 260 304 309 281 245 238 253 279
232 232 229 229 232 231 237 243 252 254 252 247 247 255 266 282 289 285 220 199 184 171 161 167 163 164 164 166 180 180 181 182 186 190 198 219 227 213 233 243 259 270 308 301 282 276 282 292 295
230 235 236 234 231 239 239 247 253 252 252 242 239 242 251 267 271 260 236 208 197 187 183 178 181 177 166 165 167 178 191 189 192 208 222 214 210 208 234 253 274 289 296 303 291 286 287 296 304
229 235 239 240 240 240 242 243 247 247 249 243 235 230 240 254 259 254 236 217 208 193 201 188 185 180 179 178 181 190 210 222 221 226 230 229 227 222 239 247 248 248 259 268 270 279 291 302 314
231 230 236 236 237 241 242 242 242 238 244 240 234 231 235 240 252 251 234 221 215 202 202 202 195 195 195 196 196 194 192 206 246 272 254 230 222 224 231 241 247 249 253 260 272 284 298 311 316
244 234 228 224 228 234 236 236 235 237 239 239 238 239 235 234 240 244 241 224 216 201 201 211 208 206 208 208 203 202 202 211 227 235 242 249 249 252 258 263 267 266 267 272 282 301 315 311 314
247 238 229 232 224 225 230 232 234 234 238 236 239 239 234 237 235 236 240 233 221 215 201 208 213 213 216 218 219 217 215 221 233 245 254 255 258 258 258 266 272 275 277 280 289 298 299 301 305
245 246 235 229 223 226 229 233 235 236 239 237 234 238 233 235 235 234 238 236 233 228 217 212 214 221 222 226 231 236 235 238 240 244 250 260 268 271 264 260 262 266 272 279 283 286 289 292 298
242 246 242 227 225 228 236 234 235 237 238 235 235 235 230 231 233 231 236 235 233 229 228 225 220 220 224 227 232 241 245 244 244 247 253 262 269 274 273 265 265 268 271 271 276 283 289 295 298
239 241 244 235 225 232 239 236 238 236 236 234 237 234 227 225 231 223 233 233 231 234 223 225 229 225 226 229 231 236 239 244 248 248 252 257 261 262 267 266 267 268 269 272 277 281 284 292 297
236 240 240 233 231 235 240 237 239 235 239 235 235 234 226 222 226 227 226 229 233 233 237 233 228 231 234 236 238 239 239 241 244 245 247 255 262 267 269 268 268 270 269 274 279 283 288 292 297
240 243 242 239 235 241 243 240 236 242 241 235 233 231 230 224 225 227 228 226 230 235 234 233 233 234 235 236 237 236 236 239 240 243 247 254 261 262 265 266 270 273 273 276 279 284 290 295 299
238 240 242 240 237 238 241 233 232 241 238 231 233 232 230 229 228 229 230 229 229 232 234 232 234 232 232 233 234 233 232 237 241 250 255 257 258 258 260 265 272 276 275 277 281 286 291 295 297
232 236 238 237 237 241 243 238 233 239 242 234 234 236 239 230 233 232 229 230 229 230 235 239 239 237 234 233 234 236 239 241 244 249 252 250 254 266 274 276 275 278 282 286 288 290 293 296 300
232 234 235 236 235 239 241 239 232 239 238 236 235 234 239 233 237 240 237 234 233 234 236 239 238 239 238 240 244 244 244 241 239 244 252 262 268 270 271 274 279 284 286 288 290 293 297 299 302
234 233 232 232 236 238 242 240 232 231 240 237 232 235 238 232 232 238 238 236 240 239 240 239 243 244 246 248 248 250 250 249 250 253 259 262 265 269 273 280 285 287 288 290 293 295 297 298 299
234 233 233 229 233 237 237 244 222 235 238 244 243 239 239 235 239 243 239 239 235 241 244 242 242 245 246 246 249 252 254 255 257 261 265 272 276 278 282 283 284 286 288 290 289 291 292 294 296
230 232 232 232 229 234 235 242 231 226 240 240 241 237 235 234 234 236 236 237 240 242 243 243 243 246 250 252 254 257 258 260 265 267 267 272 277 280 283 283 283 284 284 286 289 290 293 294 296
226 233 235 232 231 236 235 239 233 228 233 239 239 237 236 238 234 231 237 238 243 243 242 244 243 244 250 250 247 254 255 263 267 268 269 271 276 277 277 277 279 282 285 287 289 292 296 297 299
226 235 233 230 231 238 239 235 233 232 231 241 240 238 238 243 244 242 244 248 246 245 246 235 237 244 249 253 254 254 255 255 253 258 262 262 265 268 272 276 280 283 286 287 289 292 296 298 301
223 232 235 235 233 234 240 239 238 240 239 242 245 243 242 244 246 245 244 245 243 247 240 230 232 236 242 245 243 240 243 261 259 258 258 260 262 266 271 275 278 281 284 288 290 294 295 295 298
226 226 232 234 233 234 238 242 237 241 240 239 242 245 243 243 244 246 246 244 243 238 236 239 236 233 230 235 236 247 259 268 270 272 266 264 264 266 271 277 281 283 286 289 293 297 297 297 299
223 224 227 233 238 238 242 244 241 245 240 237 243 246 245 246 244 242 243 244 243 245 245 240 242 238 235 238 248 259 264 269 271 270 271 268 268 272 277 282 284 287 291 294 296 297 299 303 309
230 234 239 241 241 241 242 246 243 245 244 240 240 243 243 244 235 243 253 249 245 243 243 242 244 244 243 244 251 262 266 268 267 269 271 272 275 276 280 283 287 292 294 294 295 298 304 304 300
Height
5864 5866 5867 5870 5875 5875 5875 5877 5878 5879 5879 5878 5875 5874 5873 5870 5868 5869 5865 5864 5865 5865 5865 5866 5867 5868 5869 5870 5871 5872 5875 5876 5877 5878 5879 5881 5882 5883 5884 5884 5884 5884 5885 5886 5886 5886 5886 5886 5886
5862 5864 5865 5867 5871 5873 5873 5875 5877 5878 5878 5878 5876 5874 5872 5871 5869 5868 5866 5865 5866 5866 5867 5868 5867 5868 5870 5871 5872 5874 5875 5877 5878 5879 5880 5882 5884 5885 5885 5886 5886 5886 5886 5887 5887 5887 5887 5887 5887
5857 5861 5863 5865 5868 5870 5871 5873 5875 5877 5877 5876 5875 5874 5872 5872 5871 5870 5868 5866 5867 5867 5868 5869 5868 5869 5871 5872 5873 5875 5877 5878 5880 5881 5882 5883 5885 5885 5886 5887 5887 5887 5887 5889 5889 5888 5888 5888 5888
5853 5857 5859 5861 5865 5867 5868 5871 5873 5875 5875 5875 5873 5873 5873 5872 5872 5870 5869 5868 5867 5868 5868 5870 5871 5871 5872 5873 5875 5877 5879 5880 5881 5882 5883 5884 5885 5885 5887 5888 5888 5888 5889 5889 5890 5889 5889 5889 5889
5847 5851 5854 5857 5861 5864 5866 5869 5871 5872 5874 5874 5873 5872 5872 5872 5871 5871 5869 5869 5869 5868 5869 5870 5872 5873 5874 5874 5876 5878 5880 5881 5882 5882 5883 5885 5885 5886 5888 5889 5889 5890 5891 5891 5891 5891 5891 5890 5890
5842 5843 5849 5854 5857 5860 5863 5866 5868 5869 5871 5873 5873 5870 5871 5871 5871 5871 5870 5869 5871 5869 5870 5871 5873 5876 5876 5876 5877 5878 5880 5882 5883 5884 5885 5886 5886 5887 5889 5890 5891 5891 5892 5892 5892 5891 5891 5890 5889
5837 5839 5845 5848 5852 5857 5859 5862 5864 5866 5868 5871 5872 5869 5870 5871 5871 5870 5869 5870 5870 5871 5870 5871 5873 5875 5877 5877 5877 5878 5880 5881 5883 5884 5886 5887 5887 5888 5889 5889 5890 5891 5892 5892 5892 5891 5890 5889 5889
5833 5836 5840 5845 5849 5853 5855 5860 5861 5863 5866 5868 5869 5868 5869 5870 5870 5869 5870 5869 5870 5872 5872 5873 5873 5874 5876 5878 5879 5880 5881 5882 5883 5884 5885 5886 5887 5888 5889 5889 5890 5891 5892 5892 5892 5891 5891 5889 5888
5828 5831 5834 5839 5844 5848 5851 5856 5858 5861 5863 5865 5866 5866 5867 5867 5868 5868 5869 5869 5870 5871 5872 5873 5874 5875 5876 5878 5880 5882 5883 5882 5883 5884 5885 5886 5887 5887 5888 5889 5890 5891 5891 5892 5891 5889 5888 5888 5887
5822 5826 5829 5833 5837 5842 5845 5851 5854 5858 5859 5861 5864 5865 5864 5866 5866 5868 5867 5869 5870 5869 5872 5872 5873 5874 5876 5877 5878 5881 5883 5884 5884 5884 5884 5885 5886 5887 5888 5888 5889 5890 5889 5889 5889 5887 5886 5886 5885
5816 5821 5823 5828 5832 5836 5840 5846 5849 5853 5855 5856 5862 5861 5862 5863 5865 5866 5867 5867 5868 5868 5870 5872 5873 5873 5875 5876 5878 5879 5880 5882 5884 5884 5884 5883 5883 5884 5885 5887 5888 5888 5887 5887 5887 5886 5886 5885 5884
5808 5813 5818 5822 5825 5829 5833 5840 5844 5848 5849 5854 5857 5858 5860 5861 5862 5864 5865 5866 5867 5866 5868 5871 5872 5873 5874 5876 5877 5878 5879 5880 5880 5881 5882 5883 5884 5885 5885 5886 5887 5887 5886 5886 5885 5886 5885 5883 5881
5802 5806 5811 5814 5819 5823 5827 5833 5838 5843 5844 5849 5852 5854 5857 5858 5858 5860 5862 5862 5864 5866 5866 5868 5870 5872 5873 5875 5876 5876 5877 5878 5879 5879 5880 5881 5881 5882 5883 5884 5885 5884 5884 5884 5884 5883 5883 5881 5879
5798 5800 5805 5810 5815 5818 5821 5826 5832 5838 5840 5843 5846 5849 5853 5854 5855 5857 5859 5860 5861 5863 5863 5866 5867 5869 5870 5872 5874 5874 5875 5876 5877 5877 5878 5878 5879 5880 5880 5880 5880 5880 5880 5880 5880 5879 5878 5877 5875
5790 5795 5799 5805 5809 5812 5816 5818 5826 5833 5832 5835 5840 5844 5848 5851 5851 5853 5856 5857 5858 5860 5861 5862 5863 5865 5867 5868 5869 5871 5872 5873 5873 5874 5875 5875 5876 5877 5877 5876 5876 5876 5876 5876 5875 5875 5874 5873 5872
5781 5789 5794 5801 5804 5807 5809 5817 5825 5824 5826 5831 5835 5839 5843 5846 5846 5850 5851 5853 5855 5857 5857 5858 5861 5861 5862 5864 5865 5866 5868 5869 5870 5871 5871 5872 5872 5872 5871 5872 5872 5872 5871 5871 5870 5870 5868 5867 5867
5775 5784 5790 5797 5799 5801 5803 5813 5817 5818 5820 5826 5829 5834 5838 5841 5843 5845 5845 5848 5851 5853 5855 5856 5857 5858 5859 5861 5862 5863 5864 5865 5865 5865 5867 5868 5869 5869 5868 5868 5867 5866 5865 5866 5867 5865 5864 5862 5861
5774 5778 5784 5792 5793 5794 5797 5806 5809 5810 5814 5820 5822 5826 5831 5836 5839 5839 5841 5843 5846 5849 5850 5853 5853 5854 5855 5856 5857 5858 5860 5860 5861 5861 5862 5863 5863 5863 5862 5862 5862 5862 5863 5862 5861 5860 5859 5857 5856
5762 5767 5775 5784 5784 5784 5789 5796 5800 5802 5805 5811 5816 5822 5827 5831 5832 5833 5837 5839 5841 5845 5846 5847 5849 5850 5852 5852 5852 5853 5854 5855 5857 5858 5859 5859 5858 5856 5856 5856 5857 5857 5856 5856 5855 5854 5853 5851 5849
5750 5757 5767 5774 5778 5779 5782 5789 5794 5795 5799 5809 5813 5817 5822 5825 5825 5829 5833 5835 5838 5838 5840 5843 5844 5846 5846 5847 5848 5850 5850 5852 5854 5854 5855 5853 5852 5854 5855 5854 5853 5853 5852 5852 5850 5848 5847 5844 5843
5741 5748 5757 5766 5769 5771 5773 5778 5787 5790 5793 5802 5806 5810 5814 5818 5821 5825 5829 5832 5832 5834 5836 5836 5837 5839 5841 5842 5845 5847 5848 5848 5848 5848 5848 5850 5850 5849 5851 5849 5849 5849 5848 5846 5844 5842 5840 5837 5835
5733 5741 5749 5757 5761 5764 5766 5765 5777 5783 5785 5794 5799 5803 5808 5812 5815 5817 5822 5825 5828 5831 5828 5830 5834 5835 5837 5838 5840 5842 5843 5844 5843 5843 5844 5845 5845 5845 5845 5846 5845 5844 5842 5840 5838 5835 5833 5829 5826
5727 5735 5740 5746 5751 5754 5754 5754 5771 5777 5780 5790 5795 5798 5802 5804 5806 5810 5814 5817 5819 5821 5823 5825 5827 5830 5831 5833 5835 5838 5839 5839 5838 5840 5840 5840 5840 5840 5840 5840 5839 5837 5835 5833 5830 5827 5824 5821 5818
5716 5723 5729 5735 5739 5731 5751 5751 5756 5772 5780 5786 5789 5791 5795 5796 5799 5803 5807 5810 5812 5813 5813 5818 5821 5824 5827 5829 5831 5833 5834 5835 5835 5835 5835 5834 5834 5834 5834 5832 5831 5829 5828 5824 5822 5819 5817 5813 5809
5706 5712 5718 5721 5720 5734 5743 5742 5749 5768 5775 5779 5781 5785 5789 5791 5795 5800 5802 5805 5806 5807 5807 5810 5814 5818 5821 5823 5824 5825 5826 5826 5828 5828 5828 5828 5828 5827 5826 5824 5823 5821 5819 5816 5813 5811 5808 5804 5800
5702 5706 5705 5705 5716 5731 5725 5733 5740 5758 5770 5773 5777 5780 5785 5790 5793 5795 5796 5799 5800 5800 5799 5801 5807 5810 5813 5815 5816 5817 5819 5820 5821 5822 5822 5822 5821 5819 5817 5816 5815 5812 5810 5808 5805 5802 5799 5794 5791
5689 5687 5706 5700 5708 5713 5714 5732 5736 5747 5764 5769 5773 5775 5780 5784 5787 5789 5790 5793 5794 5795 5796 5798 5801 5804 5807 5809 5810 5811 5813 5814 5815 5815 5815 5815 5814 5812 5810 5808 5806 5803 5801 5799 5796 5793 5789 5785 5781
5675 5692 5687 5689 5696 5702 5710 5718 5729 5740 5758 5760 5763 5768 5772 5775 5779 5782 5784 5785 5788 5790 5792 5794 5797 5799 5801 5803 5804 5804 5805 5807 5807 5807 5807 5807 5805 5804 5801 5800 5797 5794 5792 5789 5786 5784 5780 5775 5772
5670 5670 5676 5685 5688 5696 5704 5707 5727 5731 5744 5752 5756 5760 5763 5767 5771 5774 5776 5779 5781 5784 5786 5789 5791 5792 5795 5797 5797 5798 5799 5800 5800 5800 5799 5798 5796 5794 5793 5790 5788 5786 5783 5779 5776 5773 5769 5765 5761
5660 5664 5671 5670 5682 5688 5689 5696 5714 5721 5731 5744 5750 5750 5755 5757 5761 5765 5769 5772 5775 5777 5779 5781 5783 5786 5787 5788 5790 5791 5791 5791 5791 5791 5789 5788 5786 5784 5782 5780 5778 5775 5772 5768 5765 5762 5758 5754 5750